Location: Bodest
(46.3000°N, 22.5667°E)
Time: 12:30:59
(UTC+00:00)

Cosmos 1844 Rocket - Pass Details

Date: 30 May 2022
Orbit: 826 x 843 km, 71.0° (Epoch: 28 June)

Event Time Altitude Azimuth Distance (km) Brightness Sun altitude
Rises 21:10:38 0° 327° (NNW) 3,380 7.3 -19.7°
Reaches altitude 10° 21:13:13 10° 319° (NW) 2,440 6.1 -19.8°
Maximum altitude 21:18:18 37° 254° (WSW) 1,260 3.6 -20.1°
Enters shadow 21:20:29 27° 210° (SSW) 1,545 3.7 -20.2°
